Location: Shannon
(40.5500°S, 175.4167°E)
Time: 21:43:10
(UTC+00:00)

Cosmos 1844 - Pass Details

Date: 17 November 2025
Orbit: 822 x 866 km, 70.9° (Epoch: 06 December)

Event Time Altitude Azimuth Distance (km) Brightness Sun altitude
Exits shadow 15:20:59 14° 350° (N) 2,133 5.3 -14.7°
Maximum altitude 15:25:43 68° 70° (ENE) 897 3.9 -14.0°
Drops below altitude 10° 15:31:19 10° 151° (SSE) 2,465 7.3 -13.2°
Sets 15:33:48 0° 153° (SSE) 3,411 8.2 -12.9°
